WBANNO,USDM_WEEK,LONGITUDE,LATITUDE,SMVWC_5_CM_MEAN,SMANOM_5_CM_MEAN,SMPERC_5_CM_30COUNTS,SMPERC_5_CM_70COUNTS,SMVWC_10_CM_MEAN,SMANOM_10_CM_MEAN,SMPERC_10_CM_30COUNTS,SMPERC_10_CM_70COUNTS,SMVWC_20_CM_MEAN,SMANOM_20_CM_MEAN,SMPERC_20_CM_30COUNTS,SMPERC_20_CM_70COUNTS,SMVWC_50_CM_MEAN,SMANOM_50_CM_MEAN,SMPERC_50_CM_30COUNTS,SMPERC_50_CM_70COUNTS,SMVWC_100_CM_MEAN,SMANOM_100_CM_MEAN,SMPERC_100_CM_30COUNTS,SMPERC_100_CM_70COUNTS,SMVWC_TOP_CM_MEAN,SMANOM_TOP_CM_MEAN,SMPERC_TOP_CM_30COUNTS,SMPERC_TOP_CM_70COUNTS,SMVWC_COLUMN_CM_MEAN,SMANOM_COLUMN_CM_MEAN,SMPERC_COLUMN_CM_30COUNTS,SMPERC_COLUMN_CM_70COUNTS
92826,20100124,-81.32,25.9,,,,,,,,,,,,,,,,,,,,,,,,,,,,
92826,20100125,-81.32,25.9,,,,,,,,,,,,,,,,,,,,,,,,,,,,
92826,20100126,-81.32,25.9,,,,,,,,,,,,,,,,,,,,,,,,,,,,
92826,20100127,-81.32,25.9,,,,,,,,,,,,,,,,,,,,,,,,,,,,
92826,20100128,-81.32,25.9,,,,,,,,,,,,,,,,,,,,,,,,,,,,
92826,20100129,-81.32,25.9,,,,,,,,,,,,,,,,,,,,,,,,,,,,
92826,20100130,-81.32,25.9,0.088,-0.25,0.096,0,0.072,-0.69,1,0,,,,,,,,,,,,,0.08,-0.46,0.75,0,,,,
92826,20100131,-81.32,25.9,0.091,-0.22,0.042,0,0.073,-0.66,1,0,,,,,,,,,,,,,0.082,-0.43,0.765,0,,,,
92826,20100201,-81.32,25.9,0.092,-0.2,0.095,0,0.074,-0.65,1,0,,,,,,,,,,,,,0.083,-0.41,0.696,0,,,,
92826,20100202,-81.32,25.9,0.106,0,0.095,0.125,0.087,-0.47,0.875,0.083,,,,,,,,,,,,,0.097,-0.21,0.673,0.125,,,,
92826,20100203,-81.32,25.9,0.115,0.14,0.095,0.268,0.095,-0.36,0.732,0.083,,,,,,,,,,,,,0.105,-0.08,0.631,0.232,,,,
92826,20100204,-81.32,25.9,0.122,0.24,0.095,0.411,0.102,-0.26,0.589,0.083,,,,,,,,,,,,,0.112,0.02,0.5,0.232,,,,
92826,20100205,-81.32,25.9,0.128,0.33,0.095,0.423,0.108,-0.19,0.446,0.083,,,,,,,,,,,,,0.118,0.11,0.357,0.232,,,,
92826,20100206,-81.32,25.9,0.134,0.42,0.095,0.429,0.113,-0.12,0.304,0.083,,,,,,,,,,,,,0.124,0.2,0.214,0.232,,,,
92826,20100207,-81.32,25.9,0.14,0.5,0.06,0.429,0.118,-0.05,0.161,0.083,,,,,,,,,,,,,0.129,0.28,0.071,0.232,,,,
92826,20100208,-81.32,25.9,0.142,0.55,0,0.429,0.122,0,0.018,0.083,,,,,,,,,,,,,0.132,0.33,0,0.232,,,,
92826,20100209,-81.32,25.9,0.13,0.36,0,0.304,0.112,-0.13,0,0,,,,,,,,,,,,,0.121,0.17,0,0.107,,,,
92826,20100210,-81.32,25.9,0.124,0.28,0,0.179,0.107,-0.19,0,0,,,,,,,,,,,,,0.116,0.1,0,0,,,,
92826,20100211,-81.32,25.9,0.121,0.24,0,0.036,0.104,-0.22,0,0,,,,,,,,,,,,,0.113,0.07,0,0,,,,
92826,20100212,-81.32,25.9,0.119,0.19,0,0.024,0.102,-0.25,0,0,,,,,,,,,,,,,0.11,0.03,0,0,,,,
92826,20100213,-81.32,25.9,0.121,0.23,0,0.101,0.104,-0.21,0,0.018,,,,,,,,,,,,,0.113,0.07,0,0.083,,,,
92826,20100214,-81.32,25.9,0.124,0.26,0,0.167,0.106,-0.18,0,0.018,,,,,,,,,,,,,0.115,0.11,0,0.113,,,,
92826,20100215,-81.32,25.9,0.125,0.29,0,0.167,0.107,-0.17,0,0.018,,,,,,,,,,,,,0.116,0.13,0,0.113,,,,
92826,20100216,-81.32,25.9,0.127,0.31,0,0.167,0.108,-0.16,0,0.018,,,,,,,,,,,,,0.117,0.14,0,0.113,,,,
92826,20100217,-81.32,25.9,0.126,0.3,0,0.149,0.108,-0.16,0.006,0.018,,,,,,,,,,,,,0.117,0.13,0,0.113,,,,
92826,20100218,-81.32,25.9,0.124,0.27,0,0.149,0.107,-0.18,0.089,0.018,,,,,,,,,,,,,0.115,0.1,0,0.113,,,,
92826,20100219,-81.32,25.9,0.123,0.25,0,0.149,0.106,-0.19,0.232,0.018,,,,,,,,,,,,,0.115,0.08,0,0.113,,,,
92826,20100220,-81.32,25.9,0.117,0.15,0,0.065,0.102,-0.27,0.375,0,,,,,,,,,,,,,0.109,-0.02,0.024,0.03,,,,
92826,20100221,-81.32,25.9,0.111,0.06,0,0,0.097,-0.34,0.518,0,,,,,,,,,,,,,0.104,-0.11,0.167,0,,,,
92826,20100222,-81.32,25.9,0.107,-0.01,0,0,0.094,-0.4,0.661,0,,,,,,,,,,,,,0.101,-0.18,0.286,0,,,,
92826,20100223,-81.32,25.9,0.106,-0.01,0,0,0.093,-0.43,0.804,0,,,,,,,,,,,,,0.099,-0.19,0.286,0,,,,
92826,20100224,-81.32,25.9,0.105,-0.02,0,0,0.092,-0.46,0.94,0,,,,,,,,,,,,,0.098,-0.21,0.286,0,,,,
92826,20100225,-81.32,25.9,0.107,0.02,0,0.065,0.092,-0.45,0.935,0,,,,,,,,,,,,,0.1,-0.18,0.286,0.012,,,,
92826,20100226,-81.32,25.9,0.109,0.07,0,0.119,0.093,-0.44,0.869,0,,,,,,,,,,,,,0.101,-0.15,0.286,0.012,,,,
92826,20100227,-81.32,25.9,0.111,0.11,0,0.119,0.094,-0.44,0.869,0,,,,,,,,,,,,,0.102,-0.13,0.262,0.012,,,,
92826,20100228,-81.32,25.9,0.113,0.15,0,0.119,0.094,-0.44,0.869,0,,,,,,,,,,,,,0.103,-0.1,0.119,0.012,,,,
92826,20100301,-81.32,25.9,0.114,0.19,0,0.119,0.095,-0.43,0.869,0,,,,,,,,,,,,,0.105,-0.07,0,0.012,,,,
92826,20100302,-81.32,25.9,0.113,0.17,0,0.119,0.094,-0.44,0.869,0,,,,,,,,,,,,,0.104,-0.08,0,0.012,,,,
92826,20100303,-81.32,25.9,0.117,0.26,0,0.238,0.098,-0.37,0.75,0.012,,,,,,,,,,,,,0.107,0.01,0,0.107,,,,
92826,20100304,-81.32,25.9,0.117,0.27,0,0.286,0.098,-0.35,0.673,0.012,,,,,,,,,,,,,0.108,0.02,0,0.095,,,,
92826,20100305,-81.32,25.9,0.116,0.26,0,0.232,0.098,-0.35,0.631,0.012,,,,,,,,,,,,,0.107,0.02,0,0.095,,,,
92826,20100306,-81.32,25.9,0.116,0.26,0,0.232,0.098,-0.34,0.625,0.012,,,,,,,,,,,,,0.107,0.02,0,0.095,,,,
92826,20100307,-81.32,25.9,0.115,0.24,0,0.232,0.098,-0.34,0.625,0.012,,,,,,,,,,,,,0.106,0,0,0.095,,,,
92826,20100308,-81.32,25.9,0.113,0.2,0,0.232,0.097,-0.34,0.625,0.012,,,,,,,,,,,,,0.105,-0.02,0.012,0.095,,,,
92826,20100309,-81.32,25.9,0.112,0.17,0,0.232,0.096,-0.35,0.625,0.012,,,,,,,,,,,,,0.104,-0.04,0.119,0.095,,,,
92826,20100310,-81.32,25.9,0.105,0.04,0,0.113,0.092,-0.42,0.744,0,,,,,,,,,,,,,0.098,-0.16,0.262,0,,,,
92826,20100311,-81.32,25.9,0.1,-0.05,0,0,0.089,-0.46,0.887,0,,,,,,,,,,,,,0.095,-0.24,0.405,0,,,,
92826,20100312,-81.32,25.9,0.096,-0.12,0,0,0.087,-0.49,0.994,0,,,,,,,,,,,,,0.092,-0.29,0.548,0,,,,
92826,20100313,-81.32,25.9,0.101,-0.02,0,0.101,0.092,-0.39,0.893,0.03,,,,,,,,,,,,,0.097,-0.19,0.583,0.101,,,,
92826,20100314,-81.32,25.9,0.106,0.05,0,0.232,0.096,-0.33,0.75,0.03,,,,,,,,,,,,,0.101,-0.12,0.583,0.119,,,,
92826,20100315,-81.32,25.9,0.109,0.11,0,0.238,0.098,-0.28,0.607,0.03,,,,,,,,,,,,,0.103,-0.07,0.571,0.119,,,,
92826,20100316,-81.32,25.9,0.111,0.16,0,0.238,0.099,-0.25,0.464,0.03,,,,,,,,,,,,,0.105,-0.03,0.464,0.119,,,,
92826,20100317,-81.32,25.9,0.114,0.19,0,0.238,0.101,-0.23,0.411,0.03,,,,,,,,,,,,,0.107,0,0.321,0.119,,,,
92826,20100318,-81.32,25.9,0.116,0.23,0,0.238,0.102,-0.21,0.411,0.03,,,,,,,,,,,,,0.109,0.03,0.179,0.119,,,,
92826,20100319,-81.32,25.9,0.117,0.26,0,0.238,0.102,-0.2,0.411,0.03,,,,,,,,,,,,,0.11,0.05,0.036,0.119,,,,
92826,20100320,-81.32,25.9,0.111,0.14,0,0.137,0.097,-0.3,0.518,0,,,,,,,,,,,,,0.104,-0.07,0,0.018,,,,
92826,20100321,-81.32,25.9,0.105,0.04,0,0.006,0.093,-0.38,0.661,0,,,,,,,,,,,,,0.099,-0.16,0.054,0,,,,
92826,20100322,-81.32,25.9,0.102,-0.02,0,0,0.09,-0.42,0.804,0,,,,,,,,,,,,,0.096,-0.21,0.167,0,,,,
92826,20100323,-81.32,25.9,0.102,0,0,0.018,0.09,-0.43,0.899,0,,,,,,,,,,,,,0.096,-0.21,0.167,0,,,,
92826,20100324,-81.32,25.9,0.102,0,0,0.018,0.089,-0.44,0.952,0,,,,,,,,,,,,,0.095,-0.22,0.167,0,,,,
92826,20100325,-81.32,25.9,0.101,0,0,0.018,0.088,-0.44,0.952,0,,,,,,,,,,,,,0.095,-0.22,0.167,0,,,,
92826,20100326,-81.32,25.9,0.102,0.04,0,0.054,0.09,-0.4,0.917,0.03,,,,,,,,,,,,,0.096,-0.18,0.167,0.036,,,,
92826,20100327,-81.32,25.9,0.114,0.27,0,0.196,0.099,-0.2,0.774,0.131,,,,,,,,,,,,,0.106,0.04,0.167,0.179,,,,
92826,20100328,-81.32,25.9,0.12,0.41,0,0.339,0.103,-0.1,0.631,0.131,,,,,,,,,,,,,0.112,0.17,0.113,0.28,,,,
92826,20100329,-81.32,25.9,0.129,0.58,0,0.482,0.11,0.05,0.488,0.155,,,,,,,,,,,,,0.119,0.33,0,0.304,,,,
92826,20100330,-81.32,25.9,0.138,0.75,0,0.607,0.117,0.21,0.393,0.256,,,,,,,,,,,,,0.127,0.51,0,0.446,,,,
92826,20100331,-81.32,25.9,0.143,0.85,0,0.75,0.121,0.3,0.25,0.256,,,,,,,,,,,,,0.132,0.61,0,0.53,,,,
92826,20100401,-81.32,25.9,0.147,0.93,0,0.893,0.123,0.36,0.107,0.256,,,,,,,,,,,,,0.135,0.68,0,0.53,,,,
92826,20100402,-81.32,25.9,0.148,0.95,0,0.893,0.123,0.38,0,0.226,,,,,,,,,,,,,0.136,0.7,0,0.494,,,,
92826,20100403,-81.32,25.9,0.139,0.77,0,0.75,0.115,0.23,0,0.125,,,,,,,,,,,,,0.127,0.53,0,0.351,,,,
92826,20100404,-81.32,25.9,0.134,0.68,0,0.607,0.112,0.16,0,0.125,,,,,,,,,,,,,0.123,0.45,0,0.25,,,,
92826,20100405,-81.32,25.9,0.126,0.53,0,0.464,0.106,0.05,0,0.101,,,,,,,,,,,,,0.116,0.32,0,0.226,,,,
92826,20100406,-81.32,25.9,0.114,0.32,0,0.321,0.098,-0.1,0,0,,,,,,,,,,,,,0.106,0.13,0,0.083,,,,
92826,20100407,-81.32,25.9,0.106,0.19,0,0.179,0.093,-0.19,0.03,0,,,,,,,,,,,,,0.1,0.02,0,0,,,,
92826,20100408,-81.32,25.9,0.1,0.08,0,0.036,0.09,-0.25,0.137,0,,,,,,,,,,,,,0.095,-0.08,0,0,,,,
92826,20100409,-81.32,25.9,0.094,-0.02,0,0,0.087,-0.31,0.28,0,,,,,,,,,,,,,0.091,-0.16,0.065,0,,,,
92826,20100410,-81.32,25.9,0.088,-0.12,0.071,0,0.085,-0.36,0.423,0,,,,,,,,,,,,,0.087,-0.24,0.208,0,,,,
92826,20100411,-81.32,25.9,0.083,-0.21,0.214,0,0.083,-0.41,0.565,0,,,,,,,,,,,,,0.083,-0.32,0.351,0,,,,
92826,20100412,-81.32,25.9,0.09,-0.09,0.25,0.107,0.089,-0.29,0.601,0.083,,,,,,,,,,,,,0.09,-0.19,0.387,0.107,,,,
92826,20100413,-81.32,25.9,0.096,0.02,0.25,0.25,0.094,-0.21,0.601,0.083,,,,,,,,,,,,,0.095,-0.09,0.387,0.244,,,,
92826,20100414,-81.32,25.9,0.102,0.11,0.25,0.369,0.097,-0.17,0.571,0.083,,,,,,,,,,,,,0.099,-0.01,0.387,0.25,,,,
92826,20100415,-81.32,25.9,0.106,0.18,0.25,0.369,0.099,-0.14,0.464,0.083,,,,,,,,,,,,,0.103,0.04,0.387,0.25,,,,
92826,20100416,-81.32,25.9,0.11,0.24,0.25,0.369,0.1,-0.12,0.381,0.083,,,,,,,,,,,,,0.105,0.09,0.321,0.25,,,,
92826,20100417,-81.32,25.9,0.114,0.3,0.179,0.369,0.102,-0.11,0.381,0.083,,,,,,,,,,,,,0.108,0.13,0.179,0.25,,,,
92826,20100418,-81.32,25.9,0.118,0.35,0.036,0.369,0.103,-0.1,0.381,0.083,,,,,,,,,,,,,0.11,0.17,0.036,0.25,,,,
92826,20100419,-81.32,25.9,0.115,0.32,0,0.363,0.1,-0.18,0.387,0.018,,,,,,,,,,,,,0.108,0.12,0,0.244,,,,
92826,20100420,-81.32,25.9,0.114,0.3,0,0.363,0.099,-0.21,0.387,0.018,,,,,,,,,,,,,0.106,0.09,0,0.155,,,,
92826,20100421,-81.32,25.9,0.113,0.28,0,0.274,0.098,-0.24,0.387,0.018,,,,,,,,,,,,,0.105,0.07,0,0.149,,,,
92826,20100422,-81.32,25.9,0.112,0.27,0,0.274,0.097,-0.26,0.476,0.018,,,,,,,,,,,,,0.105,0.06,0,0.149,,,,
92826,20100423,-81.32,25.9,0.112,0.26,0,0.274,0.097,-0.28,0.56,0.018,,,,,,,,,,,,,0.104,0.04,0,0.149,,,,
92826,20100424,-81.32,25.9,0.111,0.24,0,0.274,0.096,-0.29,0.56,0.018,,,,,,,,,,,,,0.103,0.03,0.006,0.149,,,,
92826,20100425,-81.32,25.9,0.109,0.22,0,0.274,0.096,-0.3,0.56,0.018,,,,,,,,,,,,,0.103,0.02,0.131,0.149,,,,
92826,20100426,-81.32,25.9,0.101,0.07,0.006,0.173,0.092,-0.39,0.661,0,,,,,,,,,,,,,0.096,-0.11,0.274,0.048,,,,
92826,20100427,-81.32,25.9,0.106,0.16,0.006,0.167,0.096,-0.29,0.667,0.077,,,,,,,,,,,,,0.101,-0.01,0.28,0.137,,,,
92826,20100428,-81.32,25.9,0.109,0.18,0.006,0.28,0.098,-0.26,0.667,0.077,,,,,,,,,,,,,0.103,0.02,0.28,0.179,,,,
92826,20100429,-81.32,25.9,0.11,0.2,0.006,0.31,0.099,-0.24,0.577,0.077,,,,,,,,,,,,,0.104,0.04,0.28,0.179,,,,
92826,20100430,-81.32,25.9,0.111,0.23,0.006,0.31,0.1,-0.22,0.435,0.077,,,,,,,,,,,,,0.105,0.06,0.28,0.179,,,,
92826,20100501,-81.32,25.9,0.113,0.26,0.006,0.31,0.1,-0.2,0.327,0.077,,,,,,,,,,,,,0.107,0.08,0.274,0.179,,,,
92826,20100502,-81.32,25.9,0.115,0.29,0.006,0.31,0.101,-0.18,0.28,0.077,,,,,,,,,,,,,0.108,0.1,0.149,0.179,,,,
92826,20100503,-81.32,25.9,0.117,0.31,0,0.31,0.102,-0.17,0.28,0.077,,,,,,,,,,,,,0.109,0.11,0.048,0.179,,,,
92826,20100504,-81.32,25.9,0.105,0.1,0.077,0.173,0.094,-0.35,0.417,0,,,,,,,,,,,,,0.099,-0.09,0.185,0.042,,,,
92826,20100505,-81.32,25.9,0.097,-0.05,0.22,0.03,0.09,-0.44,0.56,0,,,,,,,,,,,,,0.093,-0.22,0.327,0,,,,
92826,20100506,-81.32,25.9,0.089,-0.18,0.363,0,0.087,-0.5,0.702,0,,,,,,,,,,,,,0.088,-0.32,0.47,0,,,,
92826,20100507,-81.32,25.9,0.082,-0.3,0.506,0,0.084,-0.56,0.845,0,,,,,,,,,,,,,0.083,-0.43,0.613,0,,,,
92826,20100508,-81.32,25.9,0.075,-0.43,0.649,0,0.081,-0.63,0.952,0,,,,,,,,,,,,,0.078,-0.53,0.756,0,,,,
92826,20100509,-81.32,25.9,0.068,-0.54,0.792,0,0.078,-0.69,1,0,,,,,,,,,,,,,0.073,-0.62,0.899,0,,,,
92826,20100510,-81.32,25.9,0.062,-0.64,0.935,0,0.075,-0.76,1,0,,,,,,,,,,,,,0.069,-0.7,1,0,,,,
92826,20100511,-81.32,25.9,0.057,-0.72,1,0,0.071,-0.83,1,0,,,,,,,,,,,,,0.064,-0.77,1,0,,,,
92826,20100512,-81.32,25.9,0.052,-0.78,1,0,0.067,-0.9,1,0,,,,,,,,,,,,,0.06,-0.85,1,0,,,,
92826,20100513,-81.32,25.9,0.048,-0.84,1,0,0.063,-0.98,1,0,,,,,,,,,,,,,0.056,-0.91,1,0,,,,
92826,20100514,-81.32,25.9,0.045,-0.88,1,0,0.059,-1.04,1,0,,,,,,,,,,,,,0.052,-0.96,1,0,,,,
92826,20100515,-81.32,25.9,0.042,-0.91,1,0,0.056,-1.09,1,0,,,,,,,,,,,,,0.049,-1,1,0,,,,
92826,20100516,-81.32,25.9,0.039,-0.94,1,0,0.054,-1.12,1,0,,,,,,,,,,,,,0.046,-1.04,1,0,,,,
92826,20100517,-81.32,25.9,0.039,-0.93,1,0,0.053,-1.12,1,0,,,,,,,,,,,,,0.046,-1.03,1,0,,,,
92826,20100518,-81.32,25.9,0.042,-0.88,1,0,0.053,-1.11,1,0,,,,,,,,,,,,,0.047,-1,1,0,,,,
92826,20100519,-81.32,25.9,0.044,-0.84,1,0,0.053,-1.09,1,0,,,,,,,,,,,,,0.049,-0.96,1,0,,,,
92826,20100520,-81.32,25.9,0.049,-0.76,0.899,0,0.054,-1.06,1,0,,,,,,,,,,,,,0.051,-0.91,1,0,,,,
92826,20100521,-81.32,25.9,0.054,-0.69,0.881,0,0.055,-1.02,1,0,,,,,,,,,,,,,0.055,-0.85,1,0,,,,
92826,20100522,-81.32,25.9,0.058,-0.63,0.881,0,0.056,-0.99,1,0,,,,,,,,,,,,,0.057,-0.81,1,0,,,,
92826,20100523,-81.32,25.9,0.061,-0.58,0.881,0,0.057,-0.97,1,0,,,,,,,,,,,,,0.059,-0.77,1,0,,,,
92826,20100524,-81.32,25.9,0.06,-0.58,0.881,0,0.055,-0.98,1,0,,,,,,,,,,,,,0.058,-0.77,1,0,,,,
92826,20100525,-81.32,25.9,0.057,-0.62,0.881,0,0.053,-0.99,1,0,,,,,,,,,,,,,0.055,-0.81,1,0,,,,
92826,20100526,-81.32,25.9,0.054,-0.67,0.881,0,0.052,-1.01,1,0,,,,,,,,,,,,,0.053,-0.84,1,0,,,,
92826,20100527,-81.32,25.9,0.055,-0.66,0.881,0,0.054,-0.97,1,0,,,,,,,,,,,,,0.054,-0.83,0.964,0,,,,
92826,20100528,-81.32,25.9,0.057,-0.66,0.857,0,0.057,-0.94,1,0,,,,,,,,,,,,,0.057,-0.81,0.964,0,,,,
92826,20100529,-81.32,25.9,0.059,-0.67,0.857,0,0.058,-0.92,1,0,,,,,,,,,,,,,0.059,-0.8,0.964,0,,,,
92826,20100530,-81.32,25.9,0.06,-0.69,0.857,0,0.06,-0.92,1,0,,,,,,,,,,,,,0.06,-0.81,0.964,0,,,,
92826,20100531,-81.32,25.9,0.061,-0.71,0.857,0,0.061,-0.92,1,0,,,,,,,,,,,,,0.061,-0.82,0.964,0,,,,
92826,20100601,-81.32,25.9,0.062,-0.74,0.857,0,0.062,-0.93,1,0,,,,,,,,,,,,,0.062,-0.84,0.964,0,,,,
92826,20100602,-81.32,25.9,0.063,-0.77,0.857,0,0.062,-0.95,1,0,,,,,,,,,,,,,0.063,-0.86,0.964,0,,,,
92826,20100603,-81.32,25.9,0.057,-0.88,0.958,0,0.058,-1.03,1,0,,,,,,,,,,,,,0.058,-0.96,1,0,,,,
92826,20100604,-81.32,25.9,0.05,-1,1,0,0.054,-1.12,1,0,,,,,,,,,,,,,0.052,-1.06,1,0,,,,
92826,20100605,-81.32,25.9,0.045,-1.1,1,0,0.049,-1.2,1,0,,,,,,,,,,,,,0.047,-1.15,1,0,,,,
92826,20100606,-81.32,25.9,0.04,-1.18,1,0,0.046,-1.27,1,0,,,,,,,,,,,,,0.043,-1.23,1,0,,,,
92826,20100607,-81.32,25.9,0.037,-1.26,1,0,0.044,-1.32,1,0,,,,,,,,,,,,,0.04,-1.3,1,0,,,,
92826,20100608,-81.32,25.9,0.034,-1.32,1,0,0.043,-1.36,1,0,,,,,,,,,,,,,0.039,-1.35,1,0,,,,
92826,20100609,-81.32,25.9,0.043,-1.23,0.923,0.018,0.051,-1.28,0.97,0.006,,,,,,,,,,,,,0.047,-1.27,0.923,0.012,,,,
92826,20100610,-81.32,25.9,0.055,-1.11,0.839,0.018,0.059,-1.2,0.97,0.006,,,,,,,,,,,,,0.057,-1.16,0.893,0.012,,,,
92826,20100611,-81.32,25.9,0.065,-1,0.827,0.018,0.065,-1.13,0.97,0.006,,,,,,,,,,,,,0.065,-1.08,0.893,0.012,,,,
92826,20100612,-81.32,25.9,0.074,-0.92,0.827,0.018,0.072,-1.06,0.97,0.006,,,,,,,,,,,,,0.073,-1.01,0.893,0.012,,,,
92826,20100613,-81.32,25.9,0.082,-0.86,0.827,0.018,0.077,-1.01,0.97,0.006,,,,,,,,,,,,,0.08,-0.96,0.893,0.012,,,,
92826,20100614,-81.32,25.9,0.088,-0.82,0.827,0.018,0.082,-0.96,0.97,0.006,,,,,,,,,,,,,0.085,-0.91,0.893,0.012,,,,
92826,20100615,-81.32,25.9,0.099,-0.72,0.786,0.018,0.088,-0.9,0.97,0.006,,,,,,,,,,,,,0.094,-0.83,0.887,0.012,,,,
92826,20100616,-81.32,25.9,0.102,-0.71,0.78,0,0.089,-0.9,1,0,,,,,,,,,,,,,0.095,-0.83,0.946,0,,,,
92826,20100617,-81.32,25.9,0.106,-0.67,0.792,0.03,0.092,-0.87,0.958,0.006,,,,,,,,,,,,,0.099,-0.8,0.917,0.012,,,,
92826,20100618,-81.32,25.9,0.112,-0.61,0.661,0.03,0.097,-0.83,0.958,0.006,,,,,,,,,,,,,0.104,-0.75,0.857,0.012,,,,
92826,20100619,-81.32,25.9,0.121,-0.52,0.524,0.036,0.102,-0.76,0.94,0.006,,,,,,,,,,,,,0.112,-0.66,0.786,0.012,,,,
92826,20100620,-81.32,25.9,0.13,-0.41,0.381,0.036,0.108,-0.7,0.94,0.006,,,,,,,,,,,,,0.119,-0.58,0.756,0.012,,,,
92826,20100621,-81.32,25.9,0.139,-0.3,0.321,0.036,0.113,-0.64,0.94,0.006,,,,,,,,,,,,,0.126,-0.49,0.756,0.012,,,,
92826,20100622,-81.32,25.9,0.141,-0.28,0.363,0.036,0.115,-0.63,0.94,0.006,,,,,,,,,,,,,0.128,-0.48,0.762,0.012,,,,
92826,20100623,-81.32,25.9,0.138,-0.36,0.446,0.036,0.113,-0.66,0.94,0.006,,,,,,,,,,,,,0.125,-0.53,0.78,0.012,,,,
92826,20100624,-81.32,25.9,0.129,-0.52,0.518,0.006,0.107,-0.73,0.982,0,,,,,,,,,,,,,0.118,-0.64,0.839,0,,,,
92826,20100625,-81.32,25.9,0.12,-0.7,0.661,0.006,0.102,-0.81,0.982,0,,,,,,,,,,,,,0.111,-0.77,0.899,0,,,,
92826,20100626,-81.32,25.9,0.108,-0.92,0.798,0,0.095,-0.91,1,0,,,,,,,,,,,,,0.102,-0.92,0.97,0,,,,
92826,20100627,-81.32,25.9,0.111,-0.88,0.833,0.06,0.098,-0.88,0.94,0.018,,,,,,,,,,,,,0.105,-0.89,0.893,0.03,,,,
92826,20100628,-81.32,25.9,0.119,-0.74,0.75,0.101,0.105,-0.79,0.893,0.042,,,,,,,,,,,,,0.112,-0.79,0.762,0.06,,,,
92826,20100629,-81.32,25.9,0.123,-0.69,0.696,0.101,0.107,-0.77,0.893,0.042,,,,,,,,,,,,,0.115,-0.76,0.762,0.06,,,,
92826,20100630,-81.32,25.9,0.132,-0.54,0.601,0.131,0.113,-0.69,0.863,0.048,,,,,,,,,,,,,0.123,-0.64,0.667,0.071,,,,
92826,20100701,-81.32,25.9,0.14,-0.4,0.524,0.131,0.118,-0.63,0.863,0.048,,,,,,,,,,,,,0.129,-0.56,0.655,0.071,,,,
92826,20100702,-81.32,25.9,0.151,-0.2,0.423,0.155,0.125,-0.55,0.839,0.048,,,,,,,,,,,,,0.138,-0.42,0.583,0.071,,,,
92826,20100703,-81.32,25.9,0.166,0.07,0.28,0.19,0.134,-0.42,0.798,0.06,,,,,,,,,,,,,0.15,-0.23,0.488,0.089,,,,
92826,20100704,-81.32,25.9,0.168,0.12,0.244,0.167,0.135,-0.41,0.815,0.054,,,,,,,,,,,,,0.151,-0.2,0.464,0.077,,,,
92826,20100705,-81.32,25.9,0.166,0.09,0.244,0.167,0.133,-0.43,0.815,0.036,,,,,,,,,,,,,0.149,-0.23,0.482,0.06,,,,
92826,20100706,-81.32,25.9,0.168,0.13,0.155,0.167,0.134,-0.41,0.815,0.036,,,,,,,,,,,,,0.151,-0.2,0.393,0.06,,,,
92826,20100707,-81.32,25.9,0.164,0.05,0.208,0.137,0.131,-0.46,0.845,0.03,,,,,,,,,,,,,0.147,-0.26,0.488,0.048,,,,
92826,20100708,-81.32,25.9,0.16,-0.02,0.286,0.137,0.128,-0.5,0.845,0.03,,,,,,,,,,,,,0.144,-0.32,0.5,0.048,,,,
92826,20100709,-81.32,25.9,0.156,-0.09,0.304,0.113,0.126,-0.54,0.869,0.03,,,,,,,,,,,,,0.141,-0.37,0.565,0.048,,,,
92826,20100710,-81.32,25.9,0.149,-0.22,0.44,0.077,0.12,-0.62,0.911,0.018,,,,,,,,,,,,,0.134,-0.47,0.661,0.03,,,,
92826,20100711,-81.32,25.9,0.139,-0.4,0.583,0.042,0.113,-0.72,0.952,0.006,,,,,,,,,,,,,0.126,-0.61,0.792,0.012,,,,
92826,20100712,-81.32,25.9,0.126,-0.62,0.726,0,0.105,-0.82,1,0,,,,,,,,,,,,,0.116,-0.76,0.905,0,,,,
92826,20100713,-81.32,25.9,0.115,-0.82,0.869,0,0.1,-0.91,1,0,,,,,,,,,,,,,0.107,-0.9,0.994,0,,,,
92826,20100714,-81.32,25.9,0.105,-0.99,0.911,0,0.095,-0.97,1,0,,,,,,,,,,,,,0.1,-1.01,0.994,0,,,,
92826,20100715,-81.32,25.9,0.097,-1.12,0.911,0,0.092,-1.02,1,0,,,,,,,,,,,,,0.094,-1.09,0.994,0,,,,
92826,20100716,-81.32,25.9,0.095,-1.12,0.929,0.03,0.092,-1.01,0.958,0.006,,,,,,,,,,,,,0.094,-1.08,0.952,0.012,,,,
92826,20100717,-81.32,25.9,0.097,-1.07,0.804,0.03,0.093,-0.98,0.952,0.006,,,,,,,,,,,,,0.095,-1.04,0.911,0.012,,,,
92826,20100718,-81.32,25.9,0.098,-1.03,0.792,0.03,0.094,-0.96,0.952,0.006,,,,,,,,,,,,,0.096,-1.01,0.911,0.012,,,,
92826,20100719,-81.32,25.9,0.099,-0.98,0.792,0.03,0.094,-0.95,0.952,0.006,,,,,,,,,,,,,0.096,-0.98,0.911,0.012,,,,
92826,20100720,-81.32,25.9,0.104,-0.86,0.708,0.03,0.095,-0.91,0.952,0.006,,,,,,,,,,,,,0.1,-0.9,0.911,0.012,,,,
92826,20100721,-81.32,25.9,0.113,-0.67,0.637,0.03,0.098,-0.85,0.952,0.006,,,,,,,,,,,,,0.106,-0.78,0.851,0.012,,,,
92826,20100722,-81.32,25.9,0.122,-0.49,0.583,0.03,0.102,-0.79,0.952,0.006,,,,,,,,,,,,,0.112,-0.66,0.851,0.012,,,,
92826,20100723,-81.32,25.9,0.118,-0.53,0.649,0,0.098,-0.82,0.994,0,,,,,,,,,,,,,0.108,-0.69,0.899,0,,,,
92826,20100724,-81.32,25.9,0.119,-0.52,0.667,0.018,0.099,-0.81,0.976,0,,,,,,,,,,,,,0.109,-0.68,0.833,0.006,,,,
92826,20100725,-81.32,25.9,0.12,-0.47,0.536,0.018,0.099,-0.79,0.976,0,,,,,,,,,,,,,0.11,-0.65,0.798,0.006,,,,
92826,20100726,-81.32,25.9,0.124,-0.39,0.393,0.018,0.1,-0.76,0.976,0,,,,,,,,,,,,,0.112,-0.6,0.798,0.006,,,,
92826,20100727,-81.32,25.9,0.127,-0.33,0.339,0.024,0.102,-0.73,0.976,0,,,,,,,,,,,,,0.115,-0.55,0.714,0.006,,,,
92826,20100728,-81.32,25.9,0.126,-0.33,0.268,0.024,0.102,-0.72,0.976,0,,,,,,,,,,,,,0.114,-0.54,0.732,0.006,,,,
92826,20100729,-81.32,25.9,0.124,-0.35,0.28,0.024,0.101,-0.72,0.976,0,,,,,,,,,,,,,0.113,-0.55,0.732,0.006,,,,
92826,20100730,-81.32,25.9,0.123,-0.35,0.28,0.024,0.101,-0.72,0.976,0,,,,,,,,,,,,,0.112,-0.55,0.732,0.006,,,,
92826,20100731,-81.32,25.9,0.114,-0.47,0.393,0.006,0.096,-0.77,1,0,,,,,,,,,,,,,0.105,-0.64,0.839,0,,,,
92826,20100801,-81.32,25.9,0.106,-0.59,0.536,0.006,0.093,-0.81,1,0,,,,,,,,,,,,,0.1,-0.72,0.875,0,,,,
92826,20100802,-81.32,25.9,0.097,-0.73,0.679,0.006,0.09,-0.85,1,0,,,,,,,,,,,,,0.093,-0.81,0.875,0,,,,
92826,20100803,-81.32,25.9,0.092,-0.79,0.726,0,0.088,-0.87,0.988,0,,,,,,,,,,,,,0.09,-0.85,0.881,0,,,,
92826,20100804,-81.32,25.9,0.094,-0.76,0.726,0.018,0.089,-0.84,0.952,0,,,,,,,,,,,,,0.091,-0.82,0.833,0,,,,
92826,20100805,-81.32,25.9,0.099,-0.67,0.625,0.018,0.092,-0.79,0.923,0,,,,,,,,,,,,,0.096,-0.75,0.69,0,,,,
92826,20100806,-81.32,25.9,0.106,-0.56,0.482,0.018,0.096,-0.73,0.905,0,,,,,,,,,,,,,0.101,-0.66,0.548,0,,,,
92826,20100807,-81.32,25.9,0.113,-0.45,0.339,0.018,0.099,-0.69,0.905,0,,,,,,,,,,,,,0.106,-0.58,0.488,0,,,,
92826,20100808,-81.32,25.9,0.123,-0.3,0.196,0.036,0.103,-0.63,0.881,0,,,,,,,,,,,,,0.113,-0.46,0.345,0,,,,
92826,20100809,-81.32,25.9,0.135,-0.1,0.054,0.042,0.109,-0.54,0.851,0,,,,,,,,,,,,,0.122,-0.31,0.208,0,,,,
92826,20100810,-81.32,25.9,0.139,-0.04,0,0.042,0.111,-0.52,0.863,0,,,,,,,,,,,,,0.125,-0.27,0.19,0,,,,
92826,20100811,-81.32,25.9,0.14,-0.03,0,0.03,0.112,-0.51,0.869,0,,,,,,,,,,,,,0.126,-0.25,0.149,0,,,,
92826,20100812,-81.32,25.9,0.138,-0.07,0,0.03,0.11,-0.53,0.899,0,,,,,,,,,,,,,0.124,-0.29,0.238,0,,,,
92826,20100813,-81.32,25.9,0.134,-0.15,0.089,0.03,0.107,-0.57,0.917,0,,,,,,,,,,,,,0.12,-0.35,0.381,0,,,,
92826,20100814,-81.32,25.9,0.129,-0.22,0.232,0.03,0.106,-0.59,0.917,0,,,,,,,,,,,,,0.117,-0.39,0.44,0,,,,
92826,20100815,-81.32,25.9,0.125,-0.3,0.31,0.012,0.103,-0.63,0.94,0,,,,,,,,,,,,,0.114,-0.45,0.583,0,,,,
92826,20100816,-81.32,25.9,0.125,-0.33,0.339,0.012,0.103,-0.63,0.911,0,,,,,,,,,,,,,0.114,-0.47,0.625,0,,,,
92826,20100817,-81.32,25.9,0.131,-0.25,0.339,0.089,0.108,-0.57,0.815,0.006,,,,,,,,,,,,,0.119,-0.4,0.577,0.018,,,,
92826,20100818,-81.32,25.9,0.132,-0.25,0.339,0.083,0.108,-0.57,0.798,0.006,,,,,,,,,,,,,0.12,-0.41,0.565,0.018,,,,
92826,20100819,-81.32,25.9,0.135,-0.23,0.339,0.083,0.11,-0.56,0.798,0.006,,,,,,,,,,,,,0.122,-0.39,0.488,0.018,,,,
92826,20100820,-81.32,25.9,0.138,-0.2,0.25,0.083,0.111,-0.55,0.798,0.006,,,,,,,,,,,,,0.125,-0.37,0.452,0.018,,,,
92826,20100821,-81.32,25.9,0.148,-0.07,0.125,0.125,0.117,-0.49,0.726,0.006,,,,,,,,,,,,,0.133,-0.28,0.357,0.03,,,,
92826,20100822,-81.32,25.9,0.159,0.08,0.048,0.214,0.125,-0.41,0.637,0.012,,,,,,,,,,,,,0.142,-0.15,0.214,0.065,,,,
92826,20100823,-81.32,25.9,0.165,0.15,0.018,0.298,0.129,-0.36,0.589,0.024,,,,,,,,,,,,,0.147,-0.09,0.167,0.089,,,,
92826,20100824,-81.32,25.9,0.163,0.11,0.018,0.226,0.127,-0.39,0.619,0.018,,,,,,,,,,,,,0.145,-0.13,0.167,0.071,,,,
92826,20100825,-81.32,25.9,0.166,0.14,0.018,0.262,0.129,-0.38,0.589,0.018,,,,,,,,,,,,,0.147,-0.11,0.167,0.089,,,,
92826,20100826,-81.32,25.9,0.167,0.15,0.018,0.286,0.131,-0.37,0.565,0.018,,,,,,,,,,,,,0.149,-0.1,0.167,0.101,,,,
92826,20100827,-81.32,25.9,0.177,0.29,0.018,0.375,0.138,-0.28,0.44,0.036,,,,,,,,,,,,,0.158,0.02,0.06,0.137,,,,
92826,20100828,-81.32,25.9,0.176,0.26,0,0.333,0.137,-0.3,0.482,0.036,,,,,,,,,,,,,0.156,0,0.012,0.125,,,,
92826,20100829,-81.32,25.9,0.17,0.15,0,0.244,0.132,-0.37,0.571,0.03,,,,,,,,,,,,,0.151,-0.09,0.119,0.089,,,,
92826,20100830,-81.32,25.9,0.169,0.12,0,0.185,0.131,-0.4,0.637,0.024,,,,,,,,,,,,,0.15,-0.12,0.155,0.083,,,,
92826,20100831,-81.32,25.9,0.172,0.14,0,0.226,0.133,-0.4,0.643,0.024,,,,,,,,,,,,,0.152,-0.11,0.155,0.089,,,,
92826,20100901,-81.32,25.9,0.168,0.07,0.065,0.19,0.13,-0.44,0.72,0.024,,,,,,,,,,,,,0.149,-0.17,0.256,0.071,,,,
92826,20100902,-81.32,25.9,0.164,-0.01,0.208,0.167,0.128,-0.49,0.744,0.024,,,,,,,,,,,,,0.146,-0.23,0.387,0.06,,,,
92826,20100903,-81.32,25.9,0.152,-0.22,0.351,0.077,0.119,-0.62,0.869,0.006,,,,,,,,,,,,,0.135,-0.4,0.53,0.024,,,,
92826,20100904,-81.32,25.9,0.146,-0.32,0.494,0.077,0.115,-0.68,0.899,0.006,,,,,,,,,,,,,0.131,-0.48,0.673,0.024,,,,
92826,20100905,-81.32,25.9,0.146,-0.33,0.565,0.083,0.115,-0.7,0.899,0.006,,,,,,,,,,,,,0.131,-0.49,0.679,0.024,,,,